Location: Newark
(55.7083°N, 13.1992°E)
Time: 22:23:24
(UTC+00:00)

Envisat - Pass Details

Date: 13 October 2022
Orbit: 763 x 765 km, 98.2° (Epoch: 08 December)

Event Time Altitude Azimuth Distance (km) Brightness Sun altitude
Rises 04:21:00 0° 13° (NNE) 3,249 6.5 -11.0°
Reaches altitude 10° 04:23:21 10° 9° (N) 2,318 5.6 -10.6°
Maximum altitude 04:28:19 55° 293° (WNW) 927 3.1 -10.0°
Drops below altitude 10° 04:33:15 10° 217° (SW) 2,302 5.1 -9.3°
Sets 04:35:35 0° 213° (SSW) 3,224 5.9 -8.9°
